When you browse on this site, cookies collect data to enhance your experience and personalize the content and advertising you see.
Visit our Privacy Policy to learn more. By continuing to use the site, you agree to this use of cookies and data.
  • En España
  • Lista de países
  • Para 7 días
  • Temperatura del agua
  • El tiempo en el mapa
  • Informadores
  • user-avatar
    Iniciar sesión

    Tiempo cada hora La-Plata

    Hoy, 8 Diciembre, Domingo

    Tiempo Temperatura Precipitaciones Viento Presión Humedad
    00:00 +20°C° 0 mm 4 mps 758 mmHg 49%
    01:00 +20°C° 0 mm 5 mps 757 mmHg 48%
    02:00 +19°C° 0 mm 5 mps 757 mmHg 47%
    03:00 +20°C° 0 mm 5 mps 757 mmHg 44%
    04:00 +20°C° 0 mm 5 mps 757 mmHg 42%
    05:00 +20°C° 0 mm 5 mps 757 mmHg 39%
    06:00 +22°C° 0 mm 6 mps 757 mmHg 36%
    07:00 +24°C° 0 mm 6 mps 757 mmHg 32%
    08:00 +27°C° 0 mm 7 mps 757 mmHg 28%
    09:00 +29°C° 0 mm 6 mps 757 mmHg 26%
    10:00 +32°C° 0 mm 6 mps 757 mmHg 24%
    11:00 +34°C° 0 mm 5 mps 756 mmHg 22%
    12:00 +35°C° 0 mm 5 mps 755 mmHg 21%
    13:00 +36°C° 0 mm 5 mps 755 mmHg 21%
    14:00 +37°C° 0 mm 5 mps 754 mmHg 20%
    15:00 +35°C° 0.4 mm 4 mps 754 mmHg 28%
    16:00 +31°C° 0.4 mm 3 mps 754 mmHg 36%
    17:00 +29°C° 0.4 mm 2 mps 754 mmHg 44%
    18:00 +27°C° 0.1 mm 3 mps 754 mmHg 50%
    19:00 +25°C° 0.1 mm 3 mps 754 mmHg 56%
    20:00 +24°C° 0.1 mm 3 mps 754 mmHg 62%
    21:00 +23°C° 0 mm 4 mps 754 mmHg 62%
    22:00 +23°C° 0 mm 5 mps 755 mmHg 62%
    23:00 +23°C° 0 mm 5 mps 755 mmHg 63%

    Mañana, 9 Diciembre, Lunes

    Tiempo Temperatura Precipitaciones Viento Presión Humedad
    00:00 +23°C° 0 mm 5 mps 755 mmHg 62%
    01:00 +23°C° 0 mm 5 mps 754 mmHg 62%
    02:00 +23°C° 0 mm 5 mps 754 mmHg 62%
    03:00 +23°C° 0 mm 5 mps 755 mmHg 61%
    04:00 +23°C° 0 mm 5 mps 755 mmHg 60%
    05:00 +22°C° 0 mm 5 mps 755 mmHg 58%
    06:00 +26°C° 0 mm 5 mps 755 mmHg 50%
    07:00 +29°C° 0 mm 5 mps 755 mmHg 42%
    08:00 +32°C° 0 mm 5 mps 755 mmHg 34%
    09:00 +34°C° 0 mm 5 mps 755 mmHg 29%
    10:00 +37°C° 0 mm 5 mps 755 mmHg 25%
    11:00 +40°C° 0 mm 5 mps 755 mmHg 20%
    12:00 +40°C° 0 mm 5 mps 754 mmHg 18%
    13:00 +41°C° 0 mm 5 mps 753 mmHg 16%
    14:00 +42°C° 0 mm 5 mps 753 mmHg 14%
    15:00 +42°C° 0 mm 5 mps 752 mmHg 14%
    16:00 +41°C° 0 mm 5 mps 752 mmHg 14%
    17:00 +40°C° 0 mm 5 mps 752 mmHg 15%
    18:00 +37°C° 0 mm 5 mps 752 mmHg 17%
    19:00 +35°C° 0 mm 5 mps 752 mmHg 20%
    20:00 +33°C° 0 mm 5 mps 752 mmHg 23%
    21:00 +33°C° 0 mm 6 mps 752 mmHg 27%
    22:00 +32°C° 0 mm 7 mps 752 mmHg 31%
    23:00 +32°C° 0 mm 8 mps 752 mmHg 35%

    Pasado mañana, 10 Diciembre, Martes

    Tiempo Temperatura Precipitaciones Viento Presión Humedad
    00:00 +32°C° 0 mm 8 mps 752 mmHg 36%
    01:00 +31°C° 0 mm 8 mps 752 mmHg 36%
    02:00 +31°C° 0 mm 8 mps 752 mmHg 36%
    03:00 +29°C° 0 mm 7 mps 753 mmHg 36%
    04:00 +29°C° 0 mm 7 mps 753 mmHg 37%
    05:00 +29°C° 0 mm 7 mps 753 mmHg 37%
    06:00 +30°C° 0 mm 7 mps 753 mmHg 34%
    07:00 +33°C° 0 mm 7 mps 754 mmHg 30%
    08:00 +35°C° 0 mm 8 mps 754 mmHg 26%
    09:00 +38°C° 0 mm 8 mps 753 mmHg 23%
    10:00 +40°C° 0 mm 7 mps 753 mmHg 20%
    11:00 +43°C° 0 mm 7 mps 753 mmHg 17%
    12:00 +44°C° 0 mm 7 mps 752 mmHg 16%
    13:00 +45°C° 0 mm 7 mps 751 mmHg 14%
    14:00 +45°C° 0 mm 7 mps 750 mmHg 13%
    15:00 +43°C° 0 mm 7 mps 750 mmHg 16%
    16:00 +40°C° 0 mm 6 mps 750 mmHg 19%
    17:00 +38°C° 0 mm 6 mps 749 mmHg 23%
    18:00 +36°C° 0.1 mm 6 mps 750 mmHg 23%
    19:00 +35°C° 0.1 mm 6 mps 750 mmHg 24%
    20:00 +35°C° 0.1 mm 5 mps 751 mmHg 25%
    21:00 +33°C° 0 mm 5 mps 751 mmHg 28%
    22:00 +32°C° 0 mm 4 mps 751 mmHg 31%
    23:00 +30°C° 0 mm 3 mps 752 mmHg 35%

    11 Diciembre, Miércoles

    Tiempo Temperatura Precipitaciones Viento Presión Humedad
    00:00 +28°C° 0 mm 3 mps 752 mmHg 39%
    01:00 +27°C° 0 mm 3 mps 752 mmHg 44%
    02:00 +25°C° 0 mm 3 mps 751 mmHg 49%
    03:00 +24°C° 0 mm 3 mps 751 mmHg 54%
    04:00 +24°C° 0 mm 3 mps 751 mmHg 59%
    05:00 +23°C° 0 mm 2 mps 751 mmHg 64%
    06:00 +26°C° 0 mm 2 mps 751 mmHg 55%
    07:00 +28°C° 0 mm 2 mps 751 mmHg 46%
    08:00 +31°C° 0 mm 2 mps 751 mmHg 37%
    09:00 +34°C° 0.1 mm 3 mps 750 mmHg 32%
    10:00 +35°C° 0.1 mm 3 mps 750 mmHg 28%
    11:00 +37°C° 0.1 mm 4 mps 749 mmHg 24%
    12:00 +36°C° 0.1 mm 4 mps 749 mmHg 26%
    13:00 +35°C° 0.1 mm 5 mps 749 mmHg 28%
    14:00 +34°C° 0.1 mm 5 mps 749 mmHg 30%
    15:00 +33°C° 0.2 mm 4 mps 749 mmHg 32%
    16:00 +32°C° 0.2 mm 4 mps 749 mmHg 34%
    17:00 +30°C° 0.2 mm 3 mps 749 mmHg 36%
    18:00 +28°C° 1.2 mm 4 mps 749 mmHg 51%
    19:00 +25°C° 1.2 mm 4 mps 749 mmHg 67%
    20:00 +21°C° 1.2 mm 5 mps 750 mmHg 82%
    21:00 +21°C° 0 mm 4 mps 750 mmHg 82%
    22:00 +21°C° 0 mm 4 mps 750 mmHg 82%
    23:00 +21°C° 0 mm 3 mps 750 mmHg 82%

    12 Diciembre, Jueves

    Tiempo Temperatura Precipitaciones Viento Presión Humedad
    00:00 +21°C° 0.1 mm 3 mps 750 mmHg 84%
    01:00 +21°C° 0.1 mm 3 mps 750 mmHg 85%
    02:00 +20°C° 0.1 mm 3 mps 750 mmHg 87%
    03:00 +20°C° 0.1 mm 3 mps 751 mmHg 87%
    04:00 +20°C° 0.1 mm 2 mps 751 mmHg 87%
    05:00 +19°C° 0.1 mm 2 mps 751 mmHg 88%
    06:00 +19°C° 0 mm 4 mps 752 mmHg 77%
    07:00 +19°C° 0 mm 6 mps 753 mmHg 67%
    08:00 +18°C° 0 mm 8 mps 753 mmHg 57%
    09:00 +22°C° 0 mm 7 mps 754 mmHg 45%
    10:00 +24°C° 0 mm 7 mps 754 mmHg 34%
    11:00 +28°C° 0 mm 6 mps 755 mmHg 23%
    12:00 +28°C° 0 mm 6 mps 755 mmHg 21%
    13:00 +29°C° 0 mm 6 mps 755 mmHg 18%
    14:00 +29°C° 0 mm 5 mps 755 mmHg 16%
    15:00 +28°C° 0 mm 6 mps 755 mmHg 24%
    16:00 +26°C° 0 mm 6 mps 755 mmHg 31%
    17:00 +23°C° 0 mm 7 mps 755 mmHg 39%
    18:00 +21°C° 0 mm 7 mps 756 mmHg 49%
    19:00 +19°C° 0 mm 6 mps 757 mmHg 59%
    20:00 +16°C° 0 mm 6 mps 757 mmHg 69%
    21:00 +15°C° 0 mm 6 mps 758 mmHg 67%
    22:00 +14°C° 0 mm 6 mps 759 mmHg 66%
    23:00 +13°C° 0 mm 6 mps 759 mmHg 65%

    13 Diciembre, Viernes

    Tiempo Temperatura Precipitaciones Viento Presión Humedad
    00:00 +13°C° 0 mm 4 mps 760 mmHg 67%
    01:00 +12°C° 0 mm 3 mps 760 mmHg 69%
    02:00 +12°C° 0 mm 2 mps 760 mmHg 71%
    03:00 +12°C° 0 mm 2 mps 760 mmHg 71%
    04:00 +12°C° 0 mm 2 mps 761 mmHg 71%
    05:00 +12°C° 0 mm 1 mps 761 mmHg 70%
    06:00 +15°C° 0 mm 1 mps 761 mmHg 60%
    07:00 +19°C° 0 mm 1 mps 762 mmHg 49%
    08:00 +22°C° 0 mm 1 mps 762 mmHg 38%
    09:00 +23°C° 0 mm 2 mps 762 mmHg 32%
    10:00 +25°C° 0 mm 2 mps 762 mmHg 25%
    11:00 +27°C° 0 mm 3 mps 761 mmHg 19%
    12:00 +27°C° 0 mm 3 mps 761 mmHg 19%
    13:00 +28°C° 0 mm 3 mps 760 mmHg 19%
    14:00 +29°C° 0 mm 3 mps 760 mmHg 19%
    15:00 +27°C° 0 mm 4 mps 760 mmHg 23%
    16:00 +26°C° 0 mm 5 mps 759 mmHg 27%
    17:00 +24°C° 0 mm 6 mps 759 mmHg 31%
    18:00 +23°C° 0 mm 6 mps 759 mmHg 36%
    19:00 +21°C° 0 mm 6 mps 760 mmHg 40%
    20:00 +20°C° 0 mm 6 mps 760 mmHg 45%
    21:00 +20°C° 0 mm 7 mps 760 mmHg 44%
    22:00 +20°C° 0 mm 8 mps 760 mmHg 43%
    23:00 +20°C° 0 mm 8 mps 760 mmHg 42%
    Mostrar más